TimeCST,TemperatureF,Dew PointF,Humidity,Sea Level PressureIn,VisibilityMPH,Wind Direction,Wind SpeedMPH,Gust SpeedMPH,PrecipitationIn,Events,Conditions,WindDirDegrees,DateUTC
12:53 AM,-0.0,-6.0,76,30.34,10.0,NW,11.5,-,N/A,,Clear,320,2012-12-25 06:53:00
1:53 AM,-0.9,-7.1,75,30.36,10.0,NW,11.5,-,N/A,,Clear,320,2012-12-25 07:53:00
2:53 AM,-2.0,-8.0,76,30.38,10.0,NNW,12.7,-,N/A,,Clear,330,2012-12-25 08:53:00
3:53 AM,-2.0,-8.0,76,30.38,10.0,NNW,12.7,-,N/A,,Clear,340,2012-12-25 09:53:00
4:53 AM,-2.9,-8.0,79,30.39,10.0,NNW,12.7,-,N/A,,Clear,340,2012-12-25 10:53:00
5:53 AM,-2.9,-9.0,75,30.41,10.0,NNW,8.1,-,N/A,,Clear,330,2012-12-25 11:53:00
6:53 AM,-2.9,-9.0,75,30.44,10.0,NNW,10.4,-,N/A,,Clear,330,2012-12-25 12:53:00
7:53 AM,-4.0,-9.0,79,30.47,10.0,NW,9.2,-,N/A,,Clear,320,2012-12-25 13:53:00
8:53 AM,-2.0,-8.0,76,30.48,10.0,NNW,12.7,-,N/A,,Clear,340,2012-12-25 14:53:00
9:53 AM,-0.0,-6.0,76,30.50,10.0,NNW,12.7,-,N/A,,Clear,340,2012-12-25 15:53:00
10:53 AM,1.9,-4.0,76,30.52,10.0,NNW,9.2,-,N/A,,Clear,330,2012-12-25 16:53:00
11:53 AM,3.0,-4.0,73,30.52,10.0,NNW,11.5,-,N/A,,Clear,330,2012-12-25 17:53:00
12:53 PM,5.0,-2.0,73,30.49,10.0,NNW,11.5,-,N/A,,Clear,340,2012-12-25 18:53:00
1:53 PM,6.1,-0.9,73,30.43,10.0,North,15.0,-,N/A,,Clear,350,2012-12-25 19:53:00
2:53 PM,8.1,-0.0,70,30.42,10.0,North,18.4,-,N/A,,Clear,360,2012-12-25 20:53:00
3:53 PM,8.1,-0.0,70,30.47,10.0,NNW,9.2,-,N/A,,Clear,340,2012-12-25 21:53:00
4:53 PM,3.0,-2.9,76,30.51,10.0,WNW,6.9,-,N/A,,Clear,300,2012-12-25 22:53:00
5:53 PM,3.0,-2.9,76,30.52,10.0,NW,9.2,-,N/A,,Clear,310,2012-12-25 23:53:00
6:53 PM,3.9,-2.0,76,30.51,10.0,NW,11.5,-,N/A,,Clear,320,2012-12-26 00:53:00
7:53 PM,3.9,-2.0,76,30.49,10.0,NNW,12.7,-,N/A,,Clear,340,2012-12-26 01:53:00
8:53 PM,3.0,-2.9,76,30.47,10.0,NNW,11.5,-,N/A,,Clear,340,2012-12-26 02:53:00
9:53 PM,1.9,-4.0,76,30.45,10.0,North,11.5,-,N/A,,Clear,350,2012-12-26 03:53:00
10:53 PM,1.9,-4.0,76,30.43,10.0,North,12.7,-,N/A,,Clear,350,2012-12-26 04:53:00
11:53 PM,-0.0,-5.1,79,30.42,10.0,North,8.1,-,N/A,,Clear,360,2012-12-26 05:53:00